Retour au catalogue

STARLINK-31910

ActifCommunicationsVLEO
NORAD 59664·PAYLOAD·🇺🇸 United States

Lancé May 6, 2024 depuis Cape Canaveral Space Force Station

Loading…

Prochains Passages (prochaines 24 heures)

TLE

FraisSource: CelesTrak SupGP

Époque: Sep 14, 2026, 21:14 UTC

1 59664C 24084L   26257.88520833  .00054944  00000+0  19908-2 0  2578
2 59664  43.0031  53.0948 0001592 278.0374 335.5468 15.27539025    14

Suivez STARLINK-31910 en temps réel avec AllMySat

Download on the App Store